| time (UTC) | temp F | wind direction | speed MPH | gust MPH | rain 1hr in | rain 24hr in | rain mn in | humidity % | barometer mb |
| 20260506084748 | 56 | 71 | 2.0 | 3.0 | 0.00 | 0.00 | 0.00 | 80 | 1002.6 |
| 20260506084556 | 56 | 76 | 0.0 | 1.0 | 0.00 | 0.00 | 0.00 | 81 | 1001.1 |
| 20260506084244 | 55 | 74 | 2.0 | 3.0 | 0.00 | 0.00 | 0.00 | 80 | 1002.7 |
| 20260506083741 | 55 | 66 | 2.0 | 2.0 | 0.00 | 0.00 | 0.00 | 81 | 1002.9 |
| 20260506083239 | 55 | 54 | 2.0 | 3.0 | 0.00 | 0.00 | 0.00 | 81 | 1002.8 |
| 20260506082736 | 55 | 72 | 1.0 | 3.0 | 0.00 | 0.00 | 0.00 | 81 | 1003.0 |
| 20260506082232 | 55 | 48 | 2.0 | 3.0 | 0.00 | 0.00 | 0.00 | 81 | 1003.1 |
| 20260506081730 | 55 | 50 | 2.0 | 3.0 | 0.00 | 0.00 | 0.00 | 81 | 1003.0 |
| 20260506081556 | 55 | 153 | 0.0 | 1.0 | 0.00 | 0.00 | 0.00 | 81 | 1001.3 |
| 20260506081227 | 55 | 36 | 1.0 | 3.0 | 0.00 | 0.00 | 0.00 | 81 | 1003.0 |
| 20260506080725 | 55 | 59 | 2.0 | 2.0 | 0.00 | 0.00 | 0.00 | 82 | 1002.9 |
| 20260506080221 | 55 | 48 | 1.0 | 3.0 | 0.00 | 0.00 | 0.00 | 82 | 1002.7 |
| 20260506073205 | 55 | 48 | 2.0 | 3.0 | 0.00 | 0.00 | 0.00 | 80 | 1002.7 |
| 20260506073056 | 55 | 228 | 0.0 | 0.0 | 0.00 | 0.00 | 0.00 | 80 | 1001.2 |
| 20260506072702 | 55 | 40 | 0.0 | 2.0 | 0.00 | 0.00 | 0.00 | 80 | 1002.9 |
| 20260506072159 | 55 | 65 | 2.0 | 3.0 | 0.00 | 0.00 | 0.00 | 80 | 1002.8 |
| 20260506071657 | 55 | 45 | 0.0 | 2.0 | 0.00 | 0.00 | 0.00 | 80 | 1003.0 |
| 20260506071155 | 55 | 54 | 2.0 | 2.0 | 0.00 | 0.00 | 0.00 | 79 | 1003.1 |
| 20260506070651 | 55 | 40 | 0.0 | 3.0 | 0.00 | 0.00 | 0.00 | 79 | 1003.2 |
| 20260506070148 | 55 | 53 | 2.0 | 2.0 | 0.00 | 0.00 | 0.00 | 79 | 1003.4 |
| 20260506062125 | 55 | 50 | 1.0 | 2.0 | 0.00 | 0.00 | 0.00 | 79 | 1003.7 |
| 20260506061621 | 55 | 61 | 2.0 | 2.0 | 0.00 | 0.00 | 0.00 | 79 | 1003.9 |
| 20260506061555 | 56 | 228 | 0.0 | 0.0 | 0.00 | 0.00 | 0.00 | 79 | 1001.9 |
| 20260506061119 | 55 | 51 | 2.0 | 2.0 | 0.00 | 0.00 | 0.00 | 79 | 1003.7 |
| 20260506060617 | 55 | 55 | 2.0 | 2.0 | 0.00 | 0.00 | 0.00 | 79 | 1003.6 |
| 20260506060114 | 55 | 52 | 2.0 | 2.0 | 0.00 | 0.00 | 0.00 | 79 | 1003.7 |
| 20260506051046 | 56 | 34 | 1.0 | 1.0 | 0.00 | 0.00 | 0.00 | 76 | 1004.3 |
| 20260506050544 | 56 | 59 | 1.0 | 2.0 | 0.00 | 0.00 | 0.00 | 76 | 1004.4 |
| 20260506045034 | 56 | 63 | 2.0 | 2.0 | 0.00 | 0.00 | 0.00 | 76 | 1004.2 |
| 20260506044555 | 57 | 228 | 0.0 | 0.0 | 0.00 | 0.00 | 0.00 | 75 | 1002.4 |
| 20260506044532 | 56 | 86 | 2.0 | 3.0 | 0.00 | 0.00 | 0.00 | 75 | 1004.2 |
| 20260506044029 | 57 | 46 | 1.0 | 1.0 | 0.00 | 0.00 | 0.00 | 75 | 1004.0 |
| 20260506043526 | 57 | 67 | 0.0 | 2.0 | 0.00 | 0.00 | 0.00 | 73 | 1003.9 |
| 20260506043024 | 57 | 32 | 0.0 | 2.0 | 0.00 | 0.00 | 0.00 | 73 | 1004.1 |
| 20260506042523 | 57 | 56 | 3.0 | 3.0 | 0.00 | 0.00 | 0.00 | 73 | 1004.0 |
| 20260506042021 | 58 | 60 | 2.0 | 2.0 | 0.00 | 0.00 | 0.00 | 72 | 1004.0 |
| 20260506041519 | 57 | 61 | 2.0 | 2.0 | 0.00 | 0.00 | 0.00 | 72 | 1004.2 |
| 20260506041015 | 57 | 67 | 2.0 | 2.0 | 0.00 | 0.00 | 0.00 | 73 | 1004.1 |
| 20260506040514 | 57 | 50 | 1.0 | 2.0 | 0.00 | 0.00 | 0.00 | 73 | 1004.1 |
| 20260506040055 | 58 | 228 | 0.0 | 0.0 | 0.00 | 0.00 | 0.00 | 72 | 1002.4 |
| 20260506040009 | 57 | 48 | 2.0 | 2.0 | 0.00 | 0.00 | 0.00 | 73 | 1004.2 |
| 20260506035506 | 57 | 71 | 2.0 | 2.0 | 0.00 | 0.00 | 0.00 | 73 | 1004.2 |
| 20260506035003 | 57 | 51 | 2.0 | 2.0 | 0.00 | 0.00 | 0.00 | 73 | 1004.3 |
| 20260506034555 | 58 | 228 | 0.0 | 0.0 | 0.00 | 0.00 | 0.00 | 72 | 1002.5 |
| 20260506034500 | 57 | 71 | 1.0 | 2.0 | 0.00 | 0.00 | 0.00 | 73 | 1004.1 |
| 20260506033957 | 57 | 46 | 2.0 | 2.0 | 0.00 | 0.00 | 0.00 | 72 | 1004.2 |
| 20260506033455 | 57 | 38 | 2.0 | 2.0 | 0.00 | 0.00 | 0.00 | 72 | 1004.1 |
| 20260506033056 | 59 | 228 | 0.0 | 0.0 | 0.00 | 0.00 | 0.00 | 70 | 1002.4 |
| 20260506032951 | 58 | 56 | 2.0 | 3.0 | 0.00 | 0.00 | 0.00 | 71 | 1004.1 |
| 20260506032449 | 58 | 58 | 2.0 | 3.0 | 0.00 | 0.00 | 0.00 | 71 | 1004.2 |
| 20260506031945 | 58 | 53 | 2.0 | 2.0 | 0.00 | 0.00 | 0.00 | 71 | 1004.1 |
| 20260506031556 | 60 | 228 | 0.0 | 0.0 | 0.00 | 0.00 | 0.00 | 69 | 1002.3 |
| 20260506031442 | 58 | 58 | 2.0 | 3.0 | 0.00 | 0.00 | 0.00 | 70 | 1003.8 |
| 20260506030940 | 59 | 43 | 2.0 | 2.0 | 0.00 | 0.00 | 0.00 | 70 | 1004.2 |
| 20260506030438 | 59 | 45 | 1.0 | 3.0 | 0.00 | 0.00 | 0.00 | 69 | 1004.1 |
| 20260506030056 | 61 | 228 | 0.0 | 0.0 | 0.00 | 0.00 | 0.00 | 67 | 1002.3 |
| 20260506025934 | 59 | 64 | 2.0 | 3.0 | 0.00 | 0.00 | 0.00 | 69 | 1004.1 |
| 20260506025431 | 60 | 53 | 2.0 | 2.0 | 0.00 | 0.00 | 0.00 | 68 | 1004.0 |
| 20260506024928 | 60 | 52 | 1.0 | 3.0 | 0.00 | 0.00 | 0.00 | 67 | 1004.1 |
| 20260506024556 | 61 | 228 | 0.0 | 0.0 | 0.00 | 0.00 | 0.00 | 65 | 1002.3 |
| 20260506024425 | 60 | 41 | 2.0 | 2.0 | 0.00 | 0.00 | 0.00 | 66 | 1004.0 |
| 20260506023920 | 60 | 56 | 2.0 | 2.0 | 0.00 | 0.00 | 0.00 | 65 | 1004.1 |
| 20260506023418 | 60 | 77 | 0.0 | 2.0 | 0.00 | 0.00 | 0.00 | 65 | 1004.1 |
| 20260506023055 | 62 | 228 | 0.0 | 1.0 | 0.00 | 0.00 | 0.00 | 64 | 1002.3 |
| 20260506022914 | 61 | 46 | 1.0 | 2.0 | 0.00 | 0.00 | 0.00 | 65 | 1004.0 |
| 20260506022412 | 61 | 49 | 2.0 | 2.0 | 0.00 | 0.00 | 0.00 | 64 | 1004.1 |
| 20260506021910 | 61 | 45 | 2.0 | 3.0 | 0.00 | 0.00 | 0.00 | 64 | 1004.1 |
| 20260506021555 | 63 | 228 | 0.0 | 1.0 | 0.00 | 0.00 | 0.00 | 62 | 1002.3 |
| 20260506021407 | 62 | 57 | 1.0 | 2.0 | 0.00 | 0.00 | 0.00 | 64 | 1004.1 |
| 20260506020903 | 62 | 33 | 2.0 | 2.0 | 0.00 | 0.00 | 0.00 | 63 | 1003.9 |
| 20260506020402 | 62 | 48 | 2.0 | 2.0 | 0.00 | 0.00 | 0.00 | 62 | 1004.1 |
| 20260506015859 | 63 | 63 | 2.0 | 2.0 | 0.00 | 0.00 | 0.00 | 61 | 1003.9 |
| 20260506015356 | 63 | 55 | 2.0 | 2.0 | 0.00 | 0.00 | 0.00 | 61 | 1004.0 |
| 20260506014853 | 63 | 58 | 2.0 | 2.0 | 0.00 | 0.00 | 0.00 | 60 | 1003.9 |
| 20260506014556 | 65 | 228 | 0.0 | 0.0 | 0.00 | 0.00 | 0.00 | 57 | 1002.3 |
| 20260506014350 | 64 | 45 | 2.0 | 2.0 | 0.00 | 0.00 | 0.00 | 59 | 1003.9 |
| 20260506013846 | 64 | 60 | 1.0 | 2.0 | 0.00 | 0.00 | 0.00 | 58 | 1003.9 |
| 20260506013344 | 64 | 49 | 2.0 | 2.0 | 0.00 | 0.00 | 0.00 | 57 | 1003.8 |
| 20260506013056 | 66 | 228 | 0.0 | 0.0 | 0.00 | 0.00 | 0.00 | 55 | 1002.2 |
| 20260506012840 | 65 | 37 | 2.0 | 2.0 | 0.00 | 0.00 | 0.00 | 56 | 1003.9 |
| 20260506012337 | 65 | 53 | 2.0 | 2.0 | 0.00 | 0.00 | 0.00 | 55 | 1004.0 |
| 20260506011834 | 65 | 63 | 1.0 | 2.0 | 0.00 | 0.00 | 0.00 | 53 | 1003.7 |
| 20260506011555 | 67 | 228 | 0.0 | 0.0 | 0.00 | 0.00 | 0.00 | 51 | 1002.1 |
| 20260506011331 | 65 | 44 | 2.0 | 2.0 | 0.00 | 0.00 | 0.00 | 53 | 1003.7 |
| 20260506010828 | 66 | 48 | 2.0 | 3.0 | 0.00 | 0.00 | 0.00 | 54 | 1003.6 |
| 20260506010326 | 66 | 62 | 2.0 | 2.0 | 0.00 | 0.00 | 0.00 | 53 | 1003.5 |
| 20260506010055 | 68 | 228 | 0.0 | 0.0 | 0.00 | 0.00 | 0.00 | 49 | 1001.9 |
| 20260506005823 | 67 | 46 | 1.0 | 2.0 | 0.00 | 0.00 | 0.00 | 51 | 1003.5 |
| 20260506005320 | 67 | 50 | 2.0 | 2.0 | 0.00 | 0.00 | 0.00 | 50 | 1003.5 |
| 20260506004816 | 68 | 54 | 1.0 | 2.0 | 0.00 | 0.00 | 0.00 | 47 | 1003.5 |
| 20260506004314 | 68 | 42 | 1.0 | 2.0 | 0.00 | 0.00 | 0.00 | 46 | 1003.1 |
| 20260506003809 | 68 | 53 | 2.0 | 2.0 | 0.00 | 0.00 | 0.00 | 46 | 1003.2 |
| 20260506003306 | 69 | 41 | 1.0 | 2.0 | 0.00 | 0.00 | 0.00 | 46 | 1003.3 |
| 20260506003055 | 70 | 228 | 0.0 | 1.0 | 0.00 | 0.00 | 0.00 | 44 | 1001.6 |
| 20260506002802 | 69 | 39 | 1.0 | 2.0 | 0.00 | 0.00 | 0.00 | 45 | 1003.4 |
| 20260506002259 | 69 | 24 | 0.0 | 2.0 | 0.00 | 0.00 | 0.00 | 44 | 1003.1 |
| 20260506001754 | 70 | 51 | 1.0 | 1.0 | 0.00 | 0.00 | 0.00 | 46 | 1003.4 |
| 20260506001555 | 71 | 228 | 0.0 | 1.0 | 0.00 | 0.00 | 0.00 | 44 | 1001.5 |
| 20260506001252 | 70 | 38 | 1.0 | 2.0 | 0.00 | 0.00 | 0.00 | 46 | 1003.4 |
| 20260506000749 | 70 | 55 | 0.0 | 1.0 | 0.00 | 0.00 | 0.00 | 44 | 1003.2 |
| 20260506000247 | 70 | 37 | 0.0 | 2.0 | 0.00 | 0.00 | 0.00 | 44 | 1003.2 |
| 20260506000055 | 71 | 228 | 0.0 | 1.0 | 0.00 | 0.00 | 0.00 | 42 | 1001.4 |
| 20260505235743 | 70 | 25 | 1.0 | 2.0 | 0.00 | 0.00 | 0.00 | 42 | 1003.1 |
| 20260505235241 | 71 | 37 | 0.0 | 1.0 | 0.00 | 0.00 | 0.00 | 41 | 1003.0 |
| 20260505234737 | 71 | 29 | 0.0 | 2.0 | 0.00 | 0.00 | 0.00 | 42 | 1003.2 |
| 20260505234555 | 72 | 228 | 0.0 | 3.0 | 0.00 | 0.00 | 0.00 | 41 | 1001.3 |
| 20260505234235 | 71 | 62 | 0.0 | 1.0 | 0.00 | 0.00 | 0.00 | 40 | 1002.9 |
| 20260505233731 | 72 | 269 | 0.0 | 2.0 | 0.00 | 0.00 | 0.00 | 40 | 1003.0 |
| 20260505233230 | 71 | 232 | 2.0 | 2.0 | 0.00 | 0.00 | 0.00 | 39 | 1003.0 |
| 20260505233055 | 72 | 233 | 1.0 | 2.0 | 0.00 | 0.00 | 0.00 | 40 | 1001.3 |
| 20260505232726 | 72 | 44 | 0.0 | 1.0 | 0.00 | 0.00 | 0.00 | 41 | 1002.8 |
| 20260505232224 | 72 | 253 | 1.0 | 1.0 | 0.00 | 0.00 | 0.00 | 40 | 1002.9 |
| 20260505231720 | 72 | 27 | 0.0 | 1.0 | 0.00 | 0.00 | 0.00 | 41 | 1003.0 |
| 20260505231219 | 73 | 68 | 1.0 | 2.0 | 0.00 | 0.00 | 0.00 | 39 | 1002.6 |
| 20260505230717 | 73 | 55 | 1.0 | 2.0 | 0.00 | 0.00 | 0.00 | 38 | 1002.6 |
| 20260505230213 | 73 | 81 | 0.0 | 2.0 | 0.00 | 0.00 | 0.00 | 36 | 1002.7 |
| 20260505230056 | 73 | 238 | 1.0 | 3.0 | 0.00 | 0.00 | 0.00 | 36 | 1001.1 |
| 20260505225710 | 73 | 225 | 2.0 | 2.0 | 0.00 | 0.00 | 0.00 | 39 | 1002.8 |
| 20260505225207 | 73 | 322 | 0.0 | 2.0 | 0.00 | 0.00 | 0.00 | 36 | 1002.7 |
| 20260505224702 | 74 | 269 | 0.0 | 2.0 | 0.00 | 0.00 | 0.00 | 37 | 1002.6 |
| 20260505224556 | 74 | 240 | 1.0 | 5.0 | 0.00 | 0.00 | 0.00 | 35 | 1000.9 |
| 20260505224200 | 74 | 230 | 2.0 | 3.0 | 0.00 | 0.00 | 0.00 | 36 | 1002.7 |
| 20260505223658 | 73 | 223 | 3.0 | 6.0 | 0.00 | 0.00 | 0.00 | 36 | 1002.6 |
| 20260505223153 | 74 | 224 | 3.0 | 3.0 | 0.00 | 0.00 | 0.00 | 38 | 1002.5 |
| 20260505223056 | 74 | 234 | 1.0 | 3.0 | 0.00 | 0.00 | 0.00 | 35 | 1000.8 |
| 20260505222649 | 74 | 246 | 1.0 | 1.0 | 0.00 | 0.00 | 0.00 | 37 | 1002.6 |
| 20260505222146 | 74 | 223 | 2.0 | 2.0 | 0.00 | 0.00 | 0.00 | 36 | 1002.3 |
| 20260505221643 | 74 | 242 | 4.0 | 4.0 | 0.00 | 0.00 | 0.00 | 35 | 1002.3 |
| 20260505221555 | 74 | 224 | 1.0 | 5.0 | 0.00 | 0.00 | 0.00 | 36 | 1000.6 |
| 20260505221139 | 74 | 225 | 4.0 | 7.0 | 0.00 | 0.00 | 0.00 | 36 | 1002.3 |
| 20260505220637 | 74 | 354 | 0.0 | 2.0 | 0.00 | 0.00 | 0.00 | 35 | 1002.4 |
| 20260505220135 | 74 | 254 | 2.0 | 4.0 | 0.00 | 0.00 | 0.00 | 35 | 1002.2 |
| 20260505220055 | 74 | 212 | 1.0 | 7.0 | 0.00 | 0.00 | 0.00 | 34 | 1000.6 |
| 20260505215632 | 75 | 267 | 4.0 | 5.0 | 0.00 | 0.00 | 0.00 | 35 | 1002.1 |
| 20260505215130 | 75 | 256 | 2.0 | 9.0 | 0.00 | 0.00 | 0.00 | 35 | 1002.3 |
| 20260505214628 | 75 | 355 | 0.0 | 2.0 | 0.00 | 0.00 | 0.00 | 35 | 1002.1 |
| 20260505214555 | 75 | 133 | 0.0 | 8.0 | 0.00 | 0.00 | 0.00 | 37 | 1000.5 |
| 20260505214125 | 75 | 249 | 3.0 | 13.0 | 0.00 | 0.00 | 0.00 | 34 | 1002.2 |
| 20260505213622 | 75 | 229 | 5.0 | 5.0 | 0.00 | 0.00 | 0.00 | 36 | 1002.1 |
| 20260505213119 | 75 | 255 | 0.0 | 10.0 | 0.00 | 0.00 | 0.00 | 37 | 1002.3 |
| 20260505213056 | 75 | 250 | 5.0 | 10.0 | 0.00 | 0.00 | 0.00 | 35 | 1000.4 |
| 20260505212615 | 75 | 269 | 0.0 | 4.0 | 0.00 | 0.00 | 0.00 | 37 | 1002.2 |
| 20260505212113 | 75 | 286 | 1.0 | 10.0 | 0.00 | 0.00 | 0.00 | 35 | 1002.1 |
| 20260505211609 | 75 | 214 | 5.0 | 5.0 | 0.00 | 0.00 | 0.00 | 36 | 1002.0 |
| 20260505211555 | 76 | 218 | 2.0 | 10.0 | 0.00 | 0.00 | 0.00 | 36 | 1000.3 |
| 20260505211106 | 75 | 269 | 0.0 | 7.0 | 0.00 | 0.00 | 0.00 | 37 | 1002.0 |
| 20260505210603 | 76 | 240 | 6.0 | 10.0 | 0.00 | 0.00 | 0.00 | 35 | 1002.1 |
| 20260505210100 | 76 | 345 | 2.0 | 9.0 | 0.00 | 0.00 | 0.00 | 35 | 1002.1 |
| 20260505210055 | 76 | 231 | 3.0 | 12.0 | 0.00 | 0.00 | 0.00 | 35 | 1000.2 |
| 20260505205558 | 76 | 250 | 6.0 | 10.0 | 0.00 | 0.00 | 0.00 | 35 | 1001.8 |
| 20260505205055 | 76 | 230 | 4.0 | 7.0 | 0.00 | 0.00 | 0.00 | 36 | 1001.9 |
| 20260505204552 | 77 | 222 | 6.0 | 10.0 | 0.00 | 0.00 | 0.00 | 35 | 1002.1 |
| 20260505204049 | 77 | 283 | 0.0 | 9.0 | 0.00 | 0.00 | 0.00 | 34 | 1001.8 |
| 20260505203546 | 78 | 222 | 5.0 | 12.0 | 0.00 | 0.00 | 0.00 | 32 | 1001.8 |
| 20260505203043 | 78 | 293 | 1.0 | 7.0 | 0.00 | 0.00 | 0.00 | 35 | 1001.7 |
| 20260505202539 | 78 | 242 | 1.0 | 3.0 | 0.00 | 0.00 | 0.00 | 35 | 1001.8 |
| 20260505202035 | 76 | 226 | 7.0 | 12.0 | 0.00 | 0.00 | 0.00 | 37 | 1001.9 |
| 20260505201554 | 75 | 197 | 5.0 | 14.0 | 0.00 | 0.00 | 0.00 | 34 | 1000.3 |
| 20260505201532 | 75 | 223 | 7.0 | 14.0 | 0.00 | 0.00 | 0.00 | 36 | 1002.0 |
| 20260505201030 | 75 | 244 | 6.0 | 15.0 | 0.00 | 0.00 | 0.00 | 37 | 1001.9 |
| 20260505200527 | 75 | 44 | 0.0 | 12.0 | 0.00 | 0.00 | 0.00 | 36 | 1001.8 |
| 20260505200056 | 75 | 226 | 3.0 | 14.0 | 0.00 | 0.00 | 0.00 | 36 | 1000.1 |
| 20260505200024 | 75 | 243 | 4.0 | 9.0 | 0.00 | 0.00 | 0.00 | 36 | 1001.8 |
| 20260505195520 | 76 | 228 | 4.0 | 11.0 | 0.00 | 0.00 | 0.00 | 35 | 1001.7 |
| 20260505195018 | 76 | 235 | 5.0 | 9.0 | 0.00 | 0.00 | 0.00 | 37 | 1001.8 |
| 20260505194515 | 76 | 225 | 8.0 | 9.0 | 0.00 | 0.00 | 0.00 | 38 | 1001.8 |
| 20260505194010 | 76 | 247 | 10.0 | 20.0 | 0.00 | 0.00 | 0.00 | 35 | 1001.6 |
| 20260505193508 | 76 | 235 | 10.0 | 13.0 | 0.00 | 0.00 | 0.00 | 33 | 1001.7 |
| 20260505193056 | 77 | 225 | 4.0 | 20.0 | 0.00 | 0.00 | 0.00 | 33 | 1000.0 |
| 20260505193005 | 77 | 252 | 3.0 | 13.0 | 0.00 | 0.00 | 0.00 | 34 | 1001.7 |
| 20260505192503 | 78 | 225 | 7.0 | 12.0 | 0.00 | 0.00 | 0.00 | 34 | 1001.7 |
| 20260505192000 | 79 | 45 | 3.0 | 22.0 | 0.00 | 0.00 | 0.00 | 32 | 1001.6 |
| 20260505191556 | 78 | 225 | 3.0 | 13.0 | 0.00 | 0.00 | 0.00 | 33 | 1000.0 |
| 20260505191459 | 78 | 287 | 2.0 | 11.0 | 0.00 | 0.00 | 0.00 | 34 | 1001.7 |
| 20260505190956 | 78 | 249 | 5.0 | 15.0 | 0.00 | 0.00 | 0.00 | 35 | 1001.8 |
| 20260505190450 | 78 | 251 | 5.0 | 8.0 | 0.00 | 0.00 | 0.00 | 35 | 1001.7 |
| 20260505190055 | 78 | 237 | 6.0 | 13.0 | 0.00 | 0.00 | 0.00 | 33 | 1000.1 |
| 20260505185946 | 78 | 225 | 8.0 | 10.0 | 0.00 | 0.00 | 0.00 | 33 | 1001.9 |
| 20260505185444 | 78 | 229 | 8.0 | 12.0 | 0.00 | 0.00 | 0.00 | 36 | 1002.0 |
| 20260505184940 | 79 | 276 | 3.0 | 13.0 | 0.00 | 0.00 | 0.00 | 35 | 1002.3 |
| 20260505184555 | 77 | 214 | 3.0 | 18.0 | 0.00 | 0.00 | 0.00 | 36 | 1000.5 |
| 20260505184437 | 77 | 252 | 3.0 | 8.0 | 0.00 | 0.00 | 0.00 | 37 | 1002.5 |
| 20260505183933 | 78 | 200 | 5.0 | 15.0 | 0.00 | 0.00 | 0.00 | 36 | 1002.5 |
| 20260505183430 | 77 | 233 | 6.0 | 9.0 | 0.00 | 0.00 | 0.00 | 36 | 1002.3 |
| 20260505182927 | 76 | 322 | 2.0 | 11.0 | 0.00 | 0.00 | 0.00 | 38 | 1002.3 |
| 20260505182424 | 76 | 239 | 5.0 | 14.0 | 0.00 | 0.00 | 0.00 | 35 | 1002.5 |
| 20260505181920 | 77 | 235 | 5.0 | 9.0 | 0.00 | 0.00 | 0.00 | 37 | 1002.6 |
| 20260505181556 | 78 | 232 | 4.0 | 14.0 | 0.00 | 0.00 | 0.00 | 34 | 1000.7 |
| 20260505181418 | 78 | 337 | 2.0 | 11.0 | 0.00 | 0.00 | 0.00 | 35 | 1002.5 |
| 20260505180914 | 79 | 230 | 11.0 | 13.0 | 0.00 | 0.00 | 0.00 | 35 | 1002.7 |
| 20260505180411 | 78 | 245 | 4.0 | 10.0 | 0.00 | 0.00 | 0.00 | 38 | 1002.4 |
| 20260505180055 | 77 | 223 | 4.0 | 14.0 | 0.00 | 0.00 | 0.00 | 34 | 1000.9 |
| 20260505175908 | 78 | 228 | 9.0 | 12.0 | 0.00 | 0.00 | 0.00 | 34 | 1002.6 |
| 20260505175404 | 78 | 244 | 6.0 | 13.0 | 0.00 | 0.00 | 0.00 | 34 | 1002.8 |
| 20260505174900 | 78 | 216 | 7.0 | 12.0 | 0.00 | 0.00 | 0.00 | 34 | 1002.9 |
| 20260505174358 | 77 | 256 | 5.0 | 14.0 | 0.00 | 0.00 | 0.00 | 33 | 1003.0 |
| 20260505173854 | 78 | 224 | 6.0 | 14.0 | 0.00 | 0.00 | 0.00 | 36 | 1003.1 |
| 20260505173350 | 77 | 230 | 11.0 | 14.0 | 0.00 | 0.00 | 0.00 | 35 | 1003.1 |
| 20260505172847 | 78 | 233 | 9.0 | 10.0 | 0.00 | 0.00 | 0.00 | 36 | 1003.0 |
| 20260505172345 | 78 | 230 | 5.0 | 12.0 | 0.00 | 0.00 | 0.00 | 33 | 1002.9 |
| 20260505171844 | 78 | 269 | 6.0 | 7.0 | 0.00 | 0.00 | 0.00 | 38 | 1002.9 |
| 20260505171342 | 77 | 258 | 3.0 | 5.0 | 0.00 | 0.00 | 0.00 | 39 | 1002.6 |
| 20260505170838 | 77 | 7 | 1.0 | 5.0 | 0.00 | 0.00 | 0.00 | 36 | 1002.7 |
| 20260505170335 | 78 | 315 | 1.0 | 5.0 | 0.00 | 0.00 | 0.00 | 36 | 1002.9 |
| 20260505170056 | 77 | 241 | 3.0 | 15.0 | 0.00 | 0.00 | 0.00 | 41 | 1001.2 |
| 20260505165830 | 77 | 255 | 1.0 | 10.0 | 0.00 | 0.00 | 0.00 | 36 | 1003.1 |
| 20260505165326 | 77 | 252 | 7.0 | 19.0 | 0.00 | 0.00 | 0.00 | 39 | 1003.2 |
| 20260505164822 | 77 | 253 | 2.0 | 7.0 | 0.00 | 0.00 | 0.00 | 37 | 1002.9 |
| 20260505164555 | 77 | 220 | 4.0 | 9.0 | 0.00 | 0.00 | 0.00 | 36 | 1001.4 |
| 20260505164319 | 78 | 227 | 8.0 | 10.0 | 0.00 | 0.00 | 0.00 | 37 | 1003.3 |
| 20260505163817 | 77 | 221 | 6.0 | 6.0 | 0.00 | 0.00 | 0.00 | 39 | 1003.3 |
| 20260505163316 | 77 | 232 | 2.0 | 6.0 | 0.00 | 0.00 | 0.00 | 36 | 1003.5 |
| 20260505163055 | 76 | 221 | 3.0 | 18.0 | 0.00 | 0.00 | 0.00 | 38 | 1001.7 |
| 20260505162814 | 77 | 224 | 6.0 | 11.0 | 0.00 | 0.00 | 0.00 | 35 | 1003.5 |
| 20260505162310 | 77 | 236 | 4.0 | 13.0 | 0.00 | 0.00 | 0.00 | 41 | 1003.7 |
| 20260505161807 | 76 | 67 | 2.0 | 6.0 | 0.00 | 0.00 | 0.00 | 40 | 1003.5 |
| 20260505161555 | 76 | 223 | 3.0 | 13.0 | 0.00 | 0.00 | 0.00 | 41 | 1001.8 |
| 20260505161304 | 76 | 37 | 2.0 | 8.0 | 0.00 | 0.00 | 0.00 | 38 | 1003.7 |
| 20260505160801 | 76 | 260 | 4.0 | 10.0 | 0.00 | 0.00 | 0.00 | 40 | 1003.4 |
| 20260505160259 | 77 | 309 | 1.0 | 3.0 | 0.00 | 0.00 | 0.00 | 38 | 1003.7 |
| 20260505153238 | 74 | 188 | 2.0 | 6.0 | 0.00 | 0.00 | 0.00 | 40 | 1004.1 |
| 20260505152736 | 75 | 234 | 0.0 | 16.0 | 0.00 | 0.00 | 0.00 | 41 | 1004.0 |
| 20260505152232 | 75 | 228 | 4.0 | 7.0 | 0.00 | 0.00 | 0.00 | 46 | 1004.1 |
| 20260505151731 | 74 | 247 | 4.0 | 14.0 | 0.00 | 0.00 | 0.00 | 43 | 1004.2 |
| 20260505151229 | 74 | 20 | 0.0 | 9.0 | 0.00 | 0.00 | 0.00 | 42 | 1004.1 |
| 20260505150726 | 73 | 273 | 4.0 | 12.0 | 0.00 | 0.00 | 0.00 | 44 | 1004.4 |
| 20260505150223 | 73 | 256 | 2.0 | 6.0 | 0.00 | 0.00 | 0.00 | 47 | 1004.2 |
| 20260505140154 | 71 | 306 | 1.0 | 11.0 | 0.00 | 0.00 | 0.00 | 47 | 1004.3 |
| 20260505130118 | 65 | 247 | 0.0 | 6.0 | 0.00 | 0.00 | 0.00 | 51 | 1005.3 |
| 20260505124607 | 65 | 233 | 10.0 | 11.0 | 0.00 | 0.00 | 0.00 | 51 | 1005.0 |
| 20260505124103 | 65 | 260 | 3.0 | 13.0 | 0.00 | 0.00 | 0.00 | 51 | 1004.9 |
| 20260505123559 | 65 | 235 | 7.0 | 12.0 | 0.00 | 0.00 | 0.00 | 50 | 1005.0 |
| 20260505123056 | 66 | 228 | 6.0 | 11.0 | 0.00 | 0.00 | 0.00 | 49 | 1004.9 |
| 20260505122553 | 65 | 257 | 3.0 | 7.0 | 0.00 | 0.00 | 0.00 | 51 | 1004.8 |
| 20260505122050 | 64 | 242 | 7.0 | 8.0 | 0.00 | 0.00 | 0.00 | 52 | 1004.8 |
| 20260505121555 | 64 | 228 | 3.0 | 9.0 | 0.00 | 0.00 | 0.00 | 53 | 1003.2 |
| 20260505121546 | 64 | 218 | 4.0 | 5.0 | 0.00 | 0.00 | 0.00 | 52 | 1004.7 |
| 20260505121043 | 64 | 224 | 4.0 | 5.0 | 0.00 | 0.00 | 0.00 | 54 | 1004.9 |
| 20260505120540 | 63 | 250 | 4.0 | 11.0 | 0.00 | 0.00 | 0.00 | 52 | 1004.6 |
| 20260505120055 | 63 | 234 | 3.0 | 6.0 | 0.00 | 0.00 | 0.00 | 55 | 1003.0 |
| 20260505120035 | 64 | 228 | 5.0 | 6.0 | 0.00 | 0.00 | 0.00 | 53 | 1004.5 |
| 20260505115530 | 63 | 253 | 3.0 | 6.0 | 0.00 | 0.00 | 0.00 | 53 | 1004.5 |
| 20260505115028 | 63 | 253 | 3.0 | 10.0 | 0.00 | 0.00 | 0.00 | 53 | 1004.7 |
| 20260505114555 | 63 | 221 | 3.0 | 12.0 | 0.00 | 0.00 | 0.00 | 54 | 1003.0 |
| 20260505114525 | 63 | 252 | 4.0 | 7.0 | 0.00 | 0.00 | 0.00 | 53 | 1004.5 |
| 20260505114021 | 63 | 240 | 2.0 | 12.0 | 0.00 | 0.00 | 0.00 | 51 | 1004.7 |
| 20260505113518 | 63 | 241 | 6.0 | 8.0 | 0.00 | 0.00 | 0.00 | 53 | 1004.8 |
| 20260505113057 | 63 | 240 | 2.0 | 10.0 | 0.00 | 0.00 | 0.00 | 55 | 1003.0 |
| 20260505113014 | 63 | 224 | 4.0 | 5.0 | 0.00 | 0.00 | 0.00 | 54 | 1004.7 |
| 20260505112510 | 63 | 129 | 0.0 | 5.0 | 0.00 | 0.00 | 0.00 | 53 | 1004.8 |
| 20260505112009 | 63 | 228 | 4.0 | 5.0 | 0.00 | 0.00 | 0.00 | 54 | 1004.7 |
| 20260505111556 | 62 | 229 | 3.0 | 9.0 | 0.00 | 0.00 | 0.00 | 56 | 1002.9 |
| 20260505111508 | 62 | 230 | 5.0 | 8.0 | 0.00 | 0.00 | 0.00 | 54 | 1004.7 |
| 20260505111004 | 62 | 240 | 6.0 | 7.0 | 0.00 | 0.00 | 0.00 | 53 | 1004.6 |
| 20260505110501 | 62 | 312 | 2.0 | 5.0 | 0.00 | 0.00 | 0.00 | 55 | 1004.4 |
| 20260505101933 | 60 | 353 | 0.0 | 6.0 | 0.00 | 0.00 | 0.00 | 55 | 1004.2 |
| 20260505101554 | 60 | 232 | 3.0 | 12.0 | 0.00 | 0.00 | 0.00 | 56 | 1002.5 |
| 20260505101432 | 60 | 228 | 1.0 | 5.0 | 0.00 | 0.00 | 0.00 | 55 | 1004.0 |
| 20260505100928 | 60 | 217 | 2.0 | 9.0 | 0.00 | 0.00 | 0.00 | 55 | 1003.9 |
| 20260505100425 | 60 | 246 | 7.0 | 12.0 | 0.00 | 0.00 | 0.00 | 55 | 1004.0 |
| 20260505100056 | 60 | 228 | 4.0 | 10.0 | 0.00 | 0.00 | 0.00 | 57 | 1002.4 |
| 20260505095921 | 60 | 237 | 6.0 | 9.0 | 0.00 | 0.00 | 0.00 | 55 | 1003.9 |
| 20260505095418 | 60 | 243 | 7.0 | 8.0 | 0.00 | 0.00 | 0.00 | 55 | 1004.0 |
| 20260505094914 | 60 | 254 | 3.0 | 7.0 | 0.00 | 0.00 | 0.00 | 55 | 1003.8 |
| 20260505094555 | 60 | 231 | 3.0 | 12.0 | 0.00 | 0.00 | 0.00 | 57 | 1002.2 |
| 20260505094412 | 60 | 231 | 2.0 | 9.0 | 0.00 | 0.00 | 0.00 | 55 | 1003.7 |
| 20260505093907 | 60 | 226 | 3.0 | 12.0 | 0.00 | 0.00 | 0.00 | 55 | 1004.0 |
| 20260505093404 | 60 | 207 | 3.0 | 13.0 | 0.00 | 0.00 | 0.00 | 54 | 1003.7 |
| 20260505093056 | 60 | 217 | 6.0 | 12.0 | 0.00 | 0.00 | 0.00 | 56 | 1002.2 |
| 20260505092902 | 60 | 216 | 6.0 | 12.0 | 0.00 | 0.00 | 0.00 | 55 | 1003.9 |
| 20260505092400 | 60 | 242 | 3.0 | 9.0 | 0.00 | 0.00 | 0.00 | 55 | 1003.9 |
| 20260505091857 | 60 | 225 | 3.0 | 8.0 | 0.00 | 0.00 | 0.00 | 55 | 1003.7 |
| 20260505091556 | 60 | 226 | 5.0 | 12.0 | 0.00 | 0.00 | 0.00 | 56 | 1002.1 |
| 20260505091354 | 60 | 255 | 5.0 | 9.0 | 0.00 | 0.00 | 0.00 | 55 | 1003.7 |
| 20260505090852 | 60 | 249 | 2.0 | 7.0 | 0.00 | 0.00 | 0.00 | 55 | 1003.6 |
| 20260505090350 | 60 | 221 | 3.0 | 9.0 | 0.00 | 0.00 | 0.00 | 55 | 1003.6 |
| 20260505090055 | 60 | 224 | 3.0 | 12.0 | 0.00 | 0.00 | 0.00 | 57 | 1001.9 |
| 20260505085847 | 60 | 247 | 1.0 | 6.0 | 0.00 | 0.00 | 0.00 | 55 | 1003.5 |
| 20260505085345 | 60 | 209 | 2.0 | 12.0 | 0.00 | 0.00 | 0.00 | 55 | 1003.6 |